Change the Weather History Date:

Saturday, August 17, 2013

  Actual Average Record
Temperature  
Mean Temperature 70 °F -  
Max Temperature 79 °F 88 °F 102 °F (1999)
Min Temperature 62 °F 66 °F 59 °F (2012)
Cooling Degree Days 6    
Growing Degree Days 20 (Base 50)    
Moisture  
Dew Point 62 °F    
Average Humidity 77    
Maximum Humidity 100    
Minimum Humidity 55    
Precipitation  
Precipitation 0.00 in - - ()
Sea Level Pressure  
Sea Level Pressure 30.13 in    
Wind  
Wind Speed 7 mph (East)    
Max Wind Speed 10 mph    
Max Gust Speed -    
Visibility 10 miles    
Events Rain    
Averages and records for this station are not official NWS values.
T = Trace of Precipitation, MM = Missing Value Source: NWS Daily Summary

Daily Weather History Graph

Daily Weather History Graph

Search for Another Location

Airport or City:

Trip Planner

Search our weather history database for the weather conditions in past years. The results will help you decide how hot, cold, wet, or windy it might be!

Date:

Astronomy

Aug. 17, 2013 Rise Set
Actual Time 6:46 AM CDT 8:18 PM CDT
Civil Twilight 6:19 AM CDT 8:46 PM CDT
Nautical Twilight 5:45 AM CDT 9:19 PM CDT
Astronomical Twilight 5:10 AM CDT 9:54 PM CDT
Moon 5:33 PM CDT (8/17) 2:53 AM CDT (8/17)
Length of Visible Light 14h 27m
Length of Day
13h 31m
Waxing Gibbous, 84% of the Moon is Illuminated
Aug 17
Waxing Gibbous
Aug 20
Full
Aug 28
Last Quarter
Sep 5
New
Sep 12
First Quarter

Hourly Weather History & Observations

Time (CDT) Temp. Dew Point Humidity Pressure Visibility Wind Dir Wind Speed Gust Speed Precip Events Conditions
12:58 AM 66.6 °F 64.8 °F 94% 30.14 in 10.0 mi East 6.9 mph - N/A   Clear
1:58 AM 65.5 °F 64.2 °F 96% 30.14 in 10.0 mi East 6.9 mph - N/A   Clear
2:58 AM 64.4 °F 63.7 °F 98% 30.14 in 10.0 mi East 8.1 mph - N/A   Clear
3:58 AM 63.5 °F 63.5 °F 100% 30.14 in 10.0 mi East 5.8 mph - N/A   Clear
4:58 AM 62.8 °F 62.8 °F 100% 30.14 in 10.0 mi East 5.8 mph - N/A   Clear
5:58 AM 62.1 °F 62.1 °F 100% 30.14 in 10.0 mi East 4.6 mph - N/A   Clear
6:58 AM 62.1 °F 62.1 °F 100% 30.17 in 10.0 mi East 5.8 mph - N/A   Clear
7:58 AM 63.7 °F 62.6 °F 96% 30.17 in 10.0 mi East 5.8 mph - N/A   Clear
8:58 AM 67.3 °F 63.1 °F 87% 30.17 in 10.0 mi ESE 8.1 mph - N/A   Clear
9:58 AM 70.3 °F 62.4 °F 76% 30.17 in 10.0 mi SE 8.1 mph - N/A   Clear
10:58 AM 72.5 °F 63.0 °F 72% 30.18 in 10.0 mi SSE 5.8 mph - N/A   Clear
11:58 AM 75.2 °F 63.1 °F 66% 30.17 in 10.0 mi ESE 3.5 mph - N/A   Clear
12:58 PM 75.9 °F 63.1 °F 64% 30.15 in 10.0 mi East 8.1 mph - N/A   Partly Cloudy
1:58 PM 77.7 °F 63.5 °F 61% 30.12 in 10.0 mi ESE 9.2 mph - N/A   Partly Cloudy
2:58 PM 79.5 °F 63.3 °F 58% 30.11 in 10.0 mi ENE 9.2 mph - N/A   Partly Cloudy
3:58 PM 79.0 °F 61.5 °F 55% 30.10 in 10.0 mi NE 5.8 mph - N/A   Scattered Clouds
4:58 PM 77.9 °F 61.2 °F 56% 30.09 in 10.0 mi East 10.4 mph - N/A   Partly Cloudy
5:58 PM 79.0 °F 61.3 °F 55% 30.08 in 10.0 mi East 10.4 mph - N/A   Scattered Clouds
6:58 PM 76.8 °F 59.7 °F 55% 30.07 in 10.0 mi East 10.4 mph - N/A   Scattered Clouds
7:58 PM 74.1 °F 60.8 °F 63% 30.08 in 10.0 mi East 6.9 mph - N/A   Clear
8:37 PM 71.6 °F 62.6 °F 73% 30.10 in 10.0 mi East 5.8 mph - N/A Rain Light Rain
8:55 PM 71.6 °F 62.6 °F 73% 30.10 in 10.0 mi East 5.8 mph - N/A   Clear
8:58 PM 70.9 °F 62.1 °F 74% 30.08 in 10.0 mi East 5.8 mph - 0.00 in   Clear
9:58 PM 68.9 °F 61.0 °F 76% 30.10 in 10.0 mi East 6.9 mph - N/A   Clear
10:58 PM 67.3 °F 61.0 °F 80% 30.12 in 10.0 mi ESE 5.8 mph - N/A   Clear
11:58 PM 66.2 °F 61.2 °F 84% 30.12 in 10.0 mi ESE 5.8 mph - N/A   Clear